Weather History for Fort Knox, KY

Change the Weather History Date:

Sunday, May 18, 2014

  Actual Average Record
Temperature  
Mean Temperature 52 °F -  
Max Temperature 66 °F 73 °F 86 °F (1997)
Min Temperature 39 °F 53 °F 39 °F (2014)
Degree Days  
Heating Degree Days 12    
Growing Degree Days 2 (Base 50)    
Moisture  
Dew Point 40 °F    
Average Humidity 66    
Maximum Humidity 98    
Minimum Humidity 36    
Precipitation  
Precipitation 0.00 in - - ()
Sea Level Pressure  
Sea Level Pressure 30.25 in    
Wind  
Wind Speed 3 mph (NE)    
Max Wind Speed 12 mph    
Max Gust Speed -    
Visibility 10 miles    
Events      
Averages and records for this station are not official NWS values.
T = Trace of Precipitation, MM = Missing Value Source: NWS Daily Summary

Daily Weather History Graph

Daily Weather History Graph

Search for Another Location

Airport:

Trip Planner

Search our weather history database for the weather conditions in past years. The results will help you decide how hot, cold, wet, or windy it might be!

Date:

Astronomy

May. 18, 2014 Rise Set
Actual Time 6:31 AM EDT 8:49 PM EDT
Civil Twilight 6:01 AM EDT 9:19 PM EDT
Nautical Twilight 5:25 AM EDT 9:56 PM EDT
Astronomical Twilight 4:45 AM EDT 10:36 PM EDT
Moon No Moon Rise 10:18 AM EDT (5/18)
Length of Visible Light 15h 18m
Length of Day
14h 18m
Waning Gibbous, 81% of the Moon is Illuminated
May 18
Waning Gibbous
May 21
Last Quarter
May 28
New
Jun 5
First Quarter
Jun 13
Full

Hourly Weather History & Observations

Time (EDT) Temp. Windchill Dew Point Humidity Pressure Visibility Wind Dir Wind Speed Gust Speed Precip Events Conditions
12:58 AM 42.4 °F - 40.1 °F 91% 30.26 in 10.0 mi NNW 2.3 mph - N/A   Clear
1:58 AM 40.5 °F - 38.7 °F 93% 30.23 in 10.0 mi NW 2.3 mph - N/A   Clear
2:58 AM 39.7 °F - 38.8 °F 97% 30.25 in 10.0 mi Calm Calm - N/A   Clear
3:58 AM 39.7 °F - 39.2 °F 98% 30.25 in 10.0 mi NNE 1.2 mph - N/A   Clear
4:58 AM 39.0 °F - 37.4 °F 94% 30.26 in 10.0 mi Calm Calm - N/A   Clear
5:58 AM 39.4 °F - 37.4 °F 93% 30.27 in 10.0 mi NNE 2.3 mph - N/A   Clear
6:58 AM 39.9 °F 36.7 °F 38.5 °F 95% 30.27 in 10.0 mi NNE 4.6 mph - N/A   Clear
7:58 AM 45.3 °F 44.0 °F 41.4 °F 86% 30.28 in 10.0 mi NNE 3.5 mph - N/A   Clear
8:58 AM 50.7 °F - 41.5 °F 71% 30.29 in 10.0 mi NE 6.9 mph - N/A   Clear
9:58 AM 54.7 °F - 41.2 °F 60% 30.29 in 10.0 mi ENE 8.1 mph - N/A   Clear
10:58 AM 58.5 °F - 39.4 °F 49% 30.28 in 10.0 mi East 8.1 mph - N/A   Clear
11:58 AM 59.0 °F - 39.6 °F 49% 30.30 in 10.0 mi East 5.8 mph - N/A   Scattered Clouds
12:58 PM 60.4 °F - 40.1 °F 47% 30.28 in 10.0 mi Variable 2.3 mph - N/A   Partly Cloudy
1:58 PM 63.9 °F - 41.4 °F 44% 30.27 in 10.0 mi NE 11.5 mph - N/A   Partly Cloudy
2:58 PM 64.0 °F - 39.4 °F 40% 30.25 in 10.0 mi Variable 2.3 mph - N/A   Clear
3:58 PM 64.0 °F - 37.0 °F 37% 30.23 in 10.0 mi Variable 4.6 mph - N/A   Clear
4:58 PM 65.7 °F - 38.5 °F 37% 30.22 in 10.0 mi Variable 3.5 mph - N/A   Scattered Clouds
5:58 PM 66.2 °F - 38.7 °F 36% 30.22 in 10.0 mi North 3.5 mph - N/A   Partly Cloudy
6:58 PM 65.3 °F - 38.5 °F 37% 30.22 in 10.0 mi East 5.8 mph - N/A   Clear
7:58 PM 63.7 °F - 39.9 °F 42% 30.21 in 10.0 mi NE 4.6 mph - N/A   Clear
8:58 PM 58.8 °F - 41.4 °F 52% 30.22 in 10.0 mi NE 4.6 mph - N/A   Clear
9:58 PM 55.6 °F - 42.4 °F 61% 30.22 in 10.0 mi NE 3.5 mph - N/A   Clear
10:58 PM 50.9 °F - 44.8 °F 80% 30.24 in 10.0 mi East 1.2 mph - N/A   Clear
11:58 PM 48.9 °F - 44.2 °F 84% 30.24 in 10.0 mi Calm Calm - N/A   Clear